Regional Weather Roundup
Issued by NWS

Home | Current Version | Previous Version | Text Only | Print | Product List | Glossary On
Versions: 1 2 3 4 5 6 7 8 9 10 11 12 13 14 15 16 17 18 19 20 21 22 23 24 25 26 27 28 29 30 31 32 33 34 35 36 37 38 39 40 41 42 43 44 45 46 47 48 49 50
000
ASUS43 KDTX 231601
RWRMI
MICHIGAN HOURLY REGIONAL WEATHER ROUNDUP
NATIONAL WEATHER SERVICE DETROIT/PONTIAC MI
1200 PM EDT WED JUL 23 2014

NOTE: "FAIR" INDICATES FEW OR NO CLOUDS BELOW 12,000 FEET WITH NO
SIGNIFICANT WEATHER AND/OR OBSTRUCTION TO VISIBILITY.

MIZ047>049-052>055-059>063-066>070-074>076-081>083-231700-
SOUTHEAST LOWER MICHIGAN

CITY           SKY/WX    TMP DP  RH WIND       PRES   REMARKS
ADRIAN         CLOUDY    69  60  73 N10       30.05R
ALMA           PTSUNNY   70  55  59 N14G22    30.10R
ANN ARBOR      CLOUDY    70  57  63 N12       30.04R
BAD AXE        CLOUDY    64  54  70 N14G23    30.07R
CARO           CLOUDY    67  59  74 N8        30.07R
DETROIT CITY   CLOUDY    71  58  63 N15       30.03R
DETROIT        PTSUNNY   72  60  66 NW7       30.02R
FLINT          CLOUDY    69  55  60 N14       30.07R
GROSSE ILE     CLOUDY    70  63  78 NW9       30.00R
HILLSDALE      CLOUDY    68  61  79 N7        30.07R
HOWELL         CLOUDY    67  56  68 N8        30.06R

CITY           SKY/WX    TMP DP  RH WIND       PRES   REMARKS
JACKSON        CLOUDY    71  61  70 MISG      30.07R
LAMBERTVILLE   CLOUDY    72  61  68 NW7       30.03S
LANSING        MOSUNNY   69  56  62 N14       30.08S
LAPEER         CLOUDY    65  54  68 N10G17    30.07R
MASON          PTSUNNY   68  57  67 NE14      30.08R
MONROE         CLOUDY    70  61  73 N8        30.01R
MT. CLEMENS    CLOUDY    66  58  74 N18       30.02R
PONTIAC        PTSUNNY   70  56  61 N15G22    30.03R
PORT HOPE        N/A     67  58  72 CALM      30.05R
PORT HURON     CLOUDY    64  57  77 N12       30.04R
TRI CITIES     MOSUNNY   73  56  54 N14       30.08R
TROY           CLOUDY    68  58  70 N10G16    30.04R
SAGINAW HB     PTSUNNY   68  55  64 N10       30.07R
$$
MIZ043>046-050>051-056>058-064>065-071>073-077>080-231700-
SOUTHWEST LOWER MICHIGAN

CITY           SKY/WX    TMP DP  RH WIND       PRES   REMARKS
BATTLE CREEK   MOSUNNY   72  56  57 N13       30.09R
BENTON HARBOR  MOSUNNY   67  58  72 N8        30.12R
BIG RAPIDS     CLOUDY    66  54  65 NW10      30.12S
COLDWATER      CLOUDY    69  60  72 N7        30.08R
FREMONT        PTSUNNY   67  56  66 N12G17    30.12S
HOLLAND        PTSUNNY   72  57  59 VRB6      30.13R
GRAND RAPIDS   PTSUNNY   71  57  61 N10       30.11R
IONIA          CLOUDY    68  55  64 N10G18    30.09R
KALAMAZOO      PTSUNNY   72  57  59 N10       30.10R
LUDINGTON      PTSUNNY   63  56  77 N13G18    30.17R
MARSHALL       CLOUDY    69  58  66 N7        30.08R
MOUNT PLEASANT CLOUDY    70  55  59 N9G16     30.09S
MUSKEGON       PTSUNNY   70  56  61 N10       30.13S
SOUTH HAVEN    PTSUNNY   68  61  79 N13G23    30.12R
$$
MIZ016>042-231700-
NORTHERN LOWER MICHIGAN

CITY           SKY/WX    TMP DP  RH WIND       PRES   REMARKS
ALPENA         CLOUDY    64  54  69 N14       30.10S
BEAVER ISLAND  CLOUDY    60  53  76 N8        30.17R
BELLAIRE       CLOUDY    60  53  76 N6        30.15R
CADILLAC       CLOUDY    61  55  79 N7        30.14R
CHARLEVOIX     CLOUDY    61  55  79 N13       30.18R
FRANKFORT      CLOUDY    64  53  66 N8G20     30.17R
GAYLORD        CLOUDY    59  52  77 NE7       30.14R
GRAYLING       CLOUDY    62  55  80 N9        30.14R
HARBOR SPRINGS CLOUDY    62  53  73 NW8       30.15R
HOUGHTON LAKE  CLOUDY    63  54  72 N9        30.12S
MANISTEE       CLOUDY    64  54  68 NW13      30.17R
OSCODA         PTSUNNY   71  52  52 N15G24    30.05F
PELLSTON       CLOUDY    62  53  72 N10       30.15R
ROGERS CITY    CLOUDY    62  57  83 N12       30.13R
TRAVERSE CITY  CLOUDY    61  52  72 N8        30.14S
$$
MIZ007>008-015-231700-
EASTERN UPPER MICHIGAN

CITY           SKY/WX    TMP DP  RH WIND       PRES   REMARKS
KINROSS        PTSUNNY   64  52  63 N7G16     30.14R
MACKINAC ISLAN CLOUDY    60  53  76 N8        30.14S
NEWBERRY       SUNNY     62  49  64 N13G23    30.17S
S. S. MARIE    MOSUNNY   66  48  52 N7        30.14R
MUNISING         N/A     59  49  69 NE9       30.23R
$$
MIZ004>006-011>014-085-231700-
CENTRAL UPPER MICHIGAN

CITY           SKY/WX    TMP DP  RH WIND       PRES   REMARKS
MANISTIQUE     PTSUNNY   68  51  55 N14G21    30.18R
ESCANABA       MOSUNNY   64  48  55 N13G18    30.20F
MENOMINEE      MOSUNNY   66  48  52 N12G22    30.20S
SAWYER-GWINN   SUNNY     61  48  63 NE12G18   30.24S
$$
MIZ001>003-009>011-084-231700-
WESTERN UPPER MICHIGAN

CITY           SKY/WX    TMP DP  RH WIND       PRES   REMARKS
IRON MOUNTAIN  MOSUNNY   67  49  52 N8        30.22S
HOUGHTON       MOSUNNY   67  48  50 VRB5      30.24R
COPPER HARBOR    N/A     58  52  80 N5        30.24S
IRONWOOD       PTSUNNY   66  52  59 CALM      30.22
$$

ABBREVIATIONS USED IN REMARKS
   TC - TEMPERATURE IN CELSIUS
  WCI - WIND CHILL INDEX
   HX - HEAT INDEX
  VSB - VISIBILITY




USA.gov is the U.S. government's official web portal to all federal, state and local government web resources and services.